Regional Weather Roundup
Issued by NWS Sterling, VA

Home | Current Version | Previous Version | Graphics & Text | Print | Product List | Glossary On
Versions: 1 2 3 4 5 6 7 8 9 10 11 12 13 14 15 16 17 18 19 20 21 22 23 24 25 26 27 28
000
ASUS41 KLWX 272110
RWRLWX

REGIONAL WEATHER ROUNDUP
NATIONAL WEATHER SERVICE BALTIMORE MD/WASHINGTON DC
500 PM EDT WED APR 27 2016

Note: "FAIR" indicates few or no clouds below 12,000 feet
with no significant weather and/or obstructions to visibility.
 TC=TEMPERATURE CELSIUS

 * =Non NWS site. Station does not report precipitation (e.g. rain,
    snow, etc.), thunder, or fog.

DCZ001-MDZ009-015-VAZ040>042-051-053>054-272200-
WASHINGTON METRO

CITY           SKY/WX    TMP DP  RH WIND       PRES   REMARKS
WASHINGTON NAT CLOUDY    56  50  80 E5        29.91R
DULLES         CLOUDY    56  51  84 NE6       29.90R
ANDREWS AFB    CLOUDY    54  50  86 E7        29.89S
FT BELVOIR     CLOUDY    56  51  82 VRB2      29.90R
QUANTICO       CLOUDY    58  52  80 E7        29.90R
COLLEGE PARK*  CLOUDY    54  46  76 CALM      29.90S
LEESBURG*      CLOUDY    57  55  94 SE3       29.91R
MANASSAS*      CLOUDY    59  54  82 E3        29.89R
GAITHERSBURG*  CLOUDY    55  46  71 E3        29.94R

$$

MDZ006>007-011-014-272200-
BALTIMORE METRO

CITY           SKY/WX    TMP DP  RH WIND       PRES   REMARKS
BWI AIRPORT    CLOUDY    54  47  77 E8        29.90S
MD SCIENCE CTR   N/A     56  47  71 MISG      29.92R
MARTIN STATE   PTSUNNY   55  48  76 E5        29.93S
ANNAPOLIS      CLOUDY    54  49  83 E6        29.91S
FORT MEADE*    CLOUDY    54  46  76 E5        29.93S

$$

MDZ012-015-019>023-272200-
MARYLAND EASTERN SHORE

CITY           SKY/WX    TMP DP  RH WIND       PRES   REMARKS
OCEAN CITY     CLOUDY    51  46  83 NE10      29.91S
SALISBURY      CLOUDY    52  49  89 NE9       29.90S
CAMBRIDGE*     CLOUDY    52  48  87 NE7       29.90S
EASTON*        CLOUDY   N/A N/A N/A E6        29.94F

$$

MDZ017>025-272200-
SOUTHERN MARYLAND

CITY           SKY/WX    TMP DP  RH WIND       PRES   REMARKS
PATUXENT RIVER CLOUDY    55  50  83 NE7       29.89F
ST INIGOES     CLOUDY    57  52  83 NE8       29.88S
LEONARDTOWN*   CLOUDY    54  50  87 NE5       29.90S

$$

MDZ003>005-272200-
NORTH CENTRAL MARYLAND

CITY           SKY/WX    TMP DP  RH WIND       PRES   REMARKS
FREDERICK*     CLOUDY    55  52  88 VRB5      29.93S FOG
HAGERSTOWN APT CLOUDY    53  49  86 N6        29.90S
WESTMINSTER*   CLOUDY    54  52  94 CALM      29.91R

$$

MDZ501>502-272200-
WESTERN MARYLAND

CITY           SKY/WX    TMP DP  RH WIND       PRES   REMARKS
OAKLAND*       CLOUDY    57  50  77 W8        29.89S
CUMBERLAND*    CLOUDY    61  52  72 S5        29.91S

$$

VAZ025>031-272200-
SHENANDOAH VALLEY

CITY           SKY/WX    TMP DP  RH WIND       PRES   REMARKS
WINCHESTER*    CLOUDY    55  50  82 NE5       29.88S HAZE
FRONT ROYAL*   CLOUDY    59  54  82 N6        29.86S
LURAY*         CLOUDY    64  57  77 NE7       29.84S
NEW MARKET*    CLOUDY    63  56  76 N8        29.83S
STAUNTON*      PTSUNNY   67  66  98 E5        29.86R FOG
WAYNESBORO*    CLOUDY    65  61  89 MISG      29.85R

$$

WVZ021-048>050-054>055-272200-
EASTERN WEST VIRGINIA PANHANDLE

CITY           SKY/WX    TMP DP  RH WIND       PRES   REMARKS
MARTINSBURG    CLOUDY    53  49  86 NE6       29.89S FOG
PETERSBURG*    CLOUDY    62  57  84 N7        29.87R

$$

VAZ036>039-050-272200-
CENTRAL FOOTHILLS

CITY           SKY/WX    TMP DP  RH WIND       PRES   REMARKS
CHARLOTTESVILL LGT RAIN  63  58  83 NE8       29.85R
CULPEPER*      CLOUDY    61  56  83 CALM      29.89R
ORANGE*        HVY RAIN  63  61  94 NE3       29.88S
GORDONSVILLE*  CLOUDY    62  59  91 NE5       29.85S
WARRENTON*     CLOUDY    60  51  72 E5        29.88R

$$

VAZ055>057-272200-
NORTH AND CENTRAL PIEDMONT

CITY           SKY/WX    TMP DP  RH WIND       PRES   REMARKS
FREDERICKSBRG* CLOUDY    60  55  82 NE6       29.87S
STAFFORD*      CLOUDY    57  52  82 NE6       29.93R

$$

NCZ024-NYZ072-PAZ021-071-VAZ022-071-272200-
OTHER REGIONAL OBSERVATIONS

CITY           SKY/WX    TMP DP  RH WIND       PRES   REMARKS
NEW YORK CITY  SUNNY     59  41  51 VRB7      29.90R
PHILADELPHIA   CLOUDY    54  42  64 S3        29.93S
PITTSBURGH     PTSUNNY   67  47  48 VRB6      29.86F
ROANOKE        CLOUDY    71  65  81 N7        29.85S
RICHMOND       PTSUNNY   66  58  75 N13       29.84S
RALEIGH        MOSUNNY   86  63  45 SW8       29.79F

$$

ANZ530>537-272200-
MARINE OBSERVATIONS

STATION/POSITION TIME  TEMP    WIND        PRES
                       AIR SEA DIR/SP/G
                 (UTC) (F)     (DEG/KT/KT) (MB)
THOMAS PT LIGHT  2100   53 58   50/  5/  7 1014.2R
BALT KEY BRIDGE  2000   53     100/  8/  9 1012.5F
COVE POINT       2000   53      70/  2/  4 1012.8F
LEWISETTA        2000   56 62   70/  7/ 10 1011.8F
SOLOMONS ISLAND  2000   54 60   70/  7/ 12   N/A
PINEY POINT      2000          110/  7/  7   N/A

$$





USA.gov is the U.S. government's official web portal to all federal, state and local government web resources and services.